Location: Neuvy Saint Sepulchre
(46.5953°N, 1.8122°E)
Time: 13:34:22
(UTC+01:00)

Envisat - Pass Details

Date: 20 October 2021
Orbit: 764 x 766 km, 98.2° (Epoch: 29 November)

Event Time Altitude Azimuth Distance (km) Brightness Sun altitude
Rises 07:05:48 0° 13° (NNE) 3,244 6.4 -13.0°
Reaches altitude 10° 07:08:07 10° 14° (NNE) 2,313 5.6 -12.6°
Maximum altitude 07:13:14 86° 103° (ESE) 773 3.1 -11.7°
Drops below altitude 10° 07:18:18 10° 194° (SSW) 2,295 5.4 -10.8°
Sets 07:20:36 0° 194° (SSW) 3,216 6.1 -10.5°
